Powrót do katalogu

COSMOS 374 DEB

AktywnyUNKNOWN
NORAD 5188·DEBRIS·🇷🇺 Russia

Wystrzelony Oct 23, 1970 z Baikonur Cosmodrome

Loading…

Następne Przeloty (najbliższe 24 godziny)

TLE

ŚwieżeSource: Space-Track

Epoka: Sep 14, 2026, 12:18 UTC

1 05188U 70089AZ  26257.51256870  .00000223  00000-0  36209-3 0  9992
2 05188  63.9991  69.8372 0879100 185.1729 173.9698 12.61265224883456

Śledź COSMOS 374 DEB w czasie rzeczywistym z AllMySat

Download on the App Store